This demonstration page uses our WeatherBlox Daily Observations layout. Learn more.

Left ArrowRight Arrow

38.83388, -104.82136

Hourly Observations for May 26, 2018

Temp ( °F °C ) Dew Point ( °F °C ) Humidity (%) Winds ( mph kmh ) Pressure ( in mb ) Visibility ( mi km ) Precip ( " mm )
12:58 am 00:58 Clear 64 17.9 42 5.8 45 45 NW 6 9 29.50 999 10 16 0.00 0.00
1:58 am 01:58 Clear 63 17.2 43 6.2 49 49 NNW 8 13 29.48 998 10 16 0.00 0.00
2:58 am 02:58 Clear 62 16.9 42 5.7 48 48 NW 8 13 29.48 998 10 16 0.00 0.00
3:58 am 03:58 Clear 61 16 41 5.2 49 49 NW 8 13 29.47 998 10 16 0.00 0.00
4:58 am 04:58 Clear 59 15.2 41 5.2 52 52 NW 3 6 29.49 999 10 16 0.00 0.00
5:58 am 05:58 Sunny 61 16.1 26 -3.4 26 26 WNW 3 6 29.47 998 10 16 0.00 0.00
6:58 am 06:58 Sunny 63 17.4 40 4.6 43 43 SSE 3 6 29.49 999 10 16 0.00 0.00
7:58 am 07:58 Sunny 67 19.5 43 6.3 42 42 Calm 29.48 998 10 16 0.00 0.00
8:58 am 08:58 Sunny 66 19.1 47 8.1 49 49 Calm 29.49 999 10 16 0.00 0.00
9:58 am 09:58 Sunny 70 21.1 46 7.6 42 42 E 5 7 29.49 999 10 16 0.00 0.00
10:58 am 10:58 Sunny 74 23.4 45 7.3 36 36 ESE 8 13 29.47 998 10 16 0.00 0.00
11:58 am 11:58 Sunny 79 26 36 2 21 21 SE 10 17 29.44 997 10 16 0.00 0.00
12:58 pm 12:58 Mostly Sunny 83 28.3 18 -7.7 9 9 SE 23 37 29.39 995 10 16 0.00 0.00
1:58 pm 13:58 Sunny 80 26.7 18 -7.9 10 10 SE 20 31 29.40 996 10 16 0.00 0.00
2:58 pm 14:58 Mostly Cloudy 80 26.5 17 -8.2 9 9 SSE 13 20 29.40 996 10 16 0.00 0.00
3:24 pm 15:24 Partly Cloudy 82 28 14 -10 7 7 S 16 26 29.38 995 10 16 0.00 0.00
3:39 pm 15:39 Partly Cloudy 82 28 14 -10 7 7 S 14 22 29.37 995 10 16 0.00 0.00
3:44 pm 15:44 Partly Cloudy 82 28 16 -9 8 8 SE 16 26 29.37 995 10 16 0.00 0.00
3:58 pm 15:58 Mostly Cloudy 82 28 16 -8.9 8 8 SSE 15 24 29.36 994 10 16 0.00 0.00
4:58 pm 16:58 Mostly Cloudy 80 26.8 7 -14 6 6 NNE 7 11 29.37 995 10 16 0.00 0.00
5:25 pm 17:25 Mostly Cloudy 81 27 9 -13 6 6 S 15 24 29.36 994 10 16 0.00 0.00
5:58 pm 17:58 Mostly Cloudy 79 25.9 9 -12.7 7 7 S 7 11 29.37 995 10 16 0.00 0.00
6:58 pm 18:58 Mostly Cloudy 78 25.5 10 -12.5 7 7 SSE 9 15 29.34 994 10 16 0.00 0.00
7:58 pm 19:58 Mostly Cloudy 77 24.9 8 -13.6 7 7 SSE 9 15 29.34 994 10 16 0.00 0.00
8:58 pm 20:58 Mostly Cloudy 75 23.8 9 -12.9 8 8 ESE 9 15 29.34 994 10 16 0.00 0.00
9:59 pm 21:59 Mostly Cloudy 75 24.1 9 -12.7 8 8 S 15 24 29.33 993 10 16 0.00 0.00
11:58 pm 23:58 Mostly Cloudy 75 23.8 10 -12.1 8 8 SE 16 26 29.34 993 10 16 0.00 0.00

Powered by AerisWeather